AC2EV Weather Reports


Display with metric or nautical units.
time (UTC)temp
F
wind
direction
speed
MPH
gust
MPH
rain 1hr
in
rain 24hr
in
rain mn
in
humidity
%
barometer
mb
20260906040631 63 0 0.0 0.0 0.00 0.00 0.00 90 1014.6
20260906040144 63 0 0.0 0.0 0.00 0.00 0.00 90 1014.6
20260906035630 63 0 0.0 0.0 0.00 0.00 0.00 90 1014.6
20260906035130 63 0 0.0 0.0 0.00 0.00 0.00 90 1014.6
20260906034631 63 0 0.0 0.0 0.00 0.00 0.00 90 1014.7
20260906034131 63 0 0.0 0.0 0.00 0.00 0.00 90 1014.6
20260906033631 63 0 0.0 0.0 0.00 0.00 0.00 90 1014.5
20260906033131 64 0 0.0 0.0 0.00 0.00 0.00 90 1014.5
20260906032630 64 0 0.0 0.0 0.00 0.00 0.00 90 1014.5
20260906032131 64 0 0.0 0.0 0.00 0.00 0.00 90 1014.5
20260906031631 64 0 0.0 0.0 0.00 0.00 0.00 90 1014.5
20260906031130 64 0 0.0 0.0 0.00 0.00 0.00 90 1014.5
20260906030631 64 0 0.0 0.0 0.00 0.00 0.00 90 1014.5
20260906030130 64 0 0.0 0.0 0.00 0.00 0.00 90 1014.4
20260906025630 64 0 0.0 0.0 0.00 0.00 0.00 90 1014.4
20260906025130 64 0 0.0 0.0 0.00 0.00 0.00 90 1014.4
20260906024630 64 0 0.0 0.0 0.00 0.00 0.00 90 1014.4
20260906024130 64 0 0.0 0.0 0.00 0.00 0.00 90 1014.4
20260906023630 64 0 0.0 0.0 0.00 0.00 0.00 90 1014.4
20260906023129 64 0 0.0 0.0 0.00 0.00 0.00 89 1014.4
20260906022630 65 0 0.0 0.0 0.00 0.00 0.00 89 1014.3
20260906022131 65 0 0.0 0.0 0.00 0.00 0.00 89 1014.3
20260906021631 65 0 0.0 0.0 0.00 0.00 0.00 89 1014.2
20260906021130 65 0 0.0 0.0 0.00 0.00 0.00 89 1014.2
20260906020631 65 0 0.0 0.0 0.00 0.00 0.00 89 1014.2
20260906020130 65 0 0.0 0.0 0.00 0.00 0.00 88 1014.2
20260906015630 66 0 0.0 0.0 0.00 0.00 0.00 88 1014.2
20260906015130 66 0 0.0 0.0 0.00 0.00 0.00 88 1014.2
20260906014630 66 0 0.0 0.0 0.00 0.00 0.00 88 1014.2
20260906014130 66 0 0.0 0.0 0.00 0.00 0.00 87 1014.1
20260906013630 67 0 0.0 0.0 0.00 0.00 0.00 87 1014.1
20260906013131 67 0 0.0 0.0 0.00 0.00 0.00 87 1014.0
20260906012630 67 0 0.0 0.0 0.00 0.00 0.00 86 1014.0
20260906012131 67 0 0.0 0.0 0.00 0.00 0.00 86 1013.9
20260906011631 67 0 0.0 0.0 0.00 0.00 0.00 86 1014.0
20260906011130 68 0 0.0 0.0 0.00 0.00 0.00 85 1014.0
20260906010630 68 0 0.0 0.0 0.00 0.00 0.00 85 1014.1
20260906010131 68 0 0.0 0.0 0.00 0.00 0.00 84 1014.2
20260906005632 68 0 0.0 0.0 0.00 0.00 0.00 84 1014.1
20260906005131 68 0 0.0 0.0 0.00 0.00 0.00 84 1014.1
20260906004631 68 0 0.0 0.0 0.00 0.00 0.00 84 1014.0
20260906004129 68 0 0.0 0.0 0.00 0.00 0.00 83 1014.0
20260906003624 68 0 0.0 0.0 0.00 0.00 0.00 83 1013.9
20260906003118 69 0 0.0 0.0 0.00 0.00 0.00 82 1013.9
20260906002613 69 0 0.0 0.0 0.00 0.00 0.00 82 1013.8
20260906002108 69 0 0.0 0.0 0.00 0.00 0.00 82 1013.9
20260906001609 69 0 0.0 0.0 0.00 0.00 0.00 82 1013.9
20260906001106 69 0 0.0 0.0 0.00 0.00 0.00 82 1013.9
20260906000606 69 0 0.0 0.0 0.00 0.00 0.00 81 1014.0
20260906000106 69 0 0.0 0.0 0.00 0.00 0.00 81 1013.9
20260905235607 69 0 0.0 0.0 0.00 0.00 0.00 81 1014.0
20260905235106 69 0 0.0 0.0 0.00 0.00 0.00 80 1013.9
20260905234605 69 0 0.0 0.0 0.00 0.00 0.00 80 1014.0
20260905234104 69 0 0.0 0.0 0.00 0.00 0.00 79 1014.0
20260905233605 70 0 0.0 0.0 0.00 0.00 0.00 79 1014.0
20260905233104 70 0 0.0 0.0 0.00 0.00 0.00 79 1013.9
20260905232603 70 0 0.0 0.0 0.00 0.00 0.00 78 1013.9
20260905232103 70 0 0.0 0.0 0.00 0.00 0.00 78 1013.9
20260905231602 70 0 0.0 0.0 0.00 0.00 0.00 77 1014.0
20260905231102 70 0 0.0 0.0 0.00 0.00 0.00 76 1014.0
20260905230602 71 0 0.0 0.0 0.00 0.00 0.00 75 1014.0
20260905230103 71 300 0.0 0.0 0.00 0.00 0.00 75 1014.0
20260905225558 71 0 0.0 0.0 0.00 0.00 0.00 75 1014.0
20260905225051 71 37 0.0 0.0 0.00 0.00 0.00 74 1014.1
20260905224555 71 40 0.0 0.0 0.00 0.00 0.00 74 1014.1
20260905224052 72 0 0.0 0.0 0.00 0.00 0.00 74 1014.0
20260905223550 72 302 0.0 0.0 0.00 0.00 0.00 72 1014.1
20260905223048 72 302 0.0 0.0 0.00 0.00 0.00 72 1014.1
20260905222547 72 302 0.0 0.0 0.00 0.00 0.00 72 1014.1
20260905222047 72 302 0.0 0.0 0.00 0.00 0.00 71 1013.9
20260905221545 72 302 0.0 0.0 0.00 0.00 0.00 71 1013.9
20260905221044 72 302 0.0 0.0 0.00 0.00 0.00 70 1013.9
20260905220542 72 302 0.0 0.0 0.00 0.00 0.00 70 1013.8
20260905220039 73 302 0.0 0.0 0.00 0.00 0.00 69 1013.7
20260905215537 73 302 0.0 0.0 0.00 0.00 0.00 69 1013.7
20260905215036 73 302 0.0 0.0 0.00 0.00 0.00 69 1013.8
20260905214533 73 302 0.0 0.0 0.00 0.00 0.00 69 1013.7
20260905214032 73 302 0.0 0.0 0.00 0.00 0.00 68 1013.6
20260905213531 74 302 0.0 0.0 0.00 0.00 0.00 68 1013.6
20260905213031 74 302 0.0 0.0 0.00 0.00 0.00 68 1013.7
20260905212530 74 302 0.0 0.0 0.00 0.00 0.00 67 1013.6
20260905212031 74 302 0.0 1.0 0.00 0.00 0.00 67 1013.6
20260905211530 74 302 0.0 1.0 0.00 0.00 0.00 67 1013.5
20260905211032 74 297 0.0 1.0 0.00 0.00 0.00 66 1013.4
20260905210531 74 297 0.0 0.0 0.00 0.00 0.00 66 1013.4
20260905210031 74 297 0.0 0.0 0.00 0.00 0.00 67 1013.4
20260905205531 74 297 0.0 0.0 0.00 0.00 0.00 65 1013.3
20260905205030 74 297 0.0 0.0 0.00 0.00 0.00 66 1013.2
20260905204529 75 297 0.0 0.0 0.00 0.00 0.00 65 1013.3
20260905204029 75 297 0.0 0.0 0.00 0.00 0.00 66 1013.4
20260905203527 74 297 0.0 0.0 0.00 0.00 0.00 65 1013.4
20260905203026 75 297 0.0 0.0 0.00 0.00 0.00 65 1013.3
20260905202525 75 297 0.0 0.0 0.00 0.00 0.00 65 1013.4
20260905202025 75 297 0.0 0.0 0.00 0.00 0.00 65 1013.5
20260905201524 76 297 0.0 0.0 0.00 0.00 0.00 64 1013.5
20260905201021 75 297 0.0 0.0 0.00 0.00 0.00 64 1013.5
20260905200521 75 297 0.0 0.0 0.00 0.00 0.00 64 1013.4
20260905200021 75 297 0.0 0.0 0.00 0.00 0.00 64 1013.3
20260905195520 75 297 0.0 0.0 0.00 0.00 0.00 63 1013.4
20260905195019 75 297 0.0 0.0 0.00 0.00 0.00 64 1013.5
20260905194519 75 297 0.0 0.0 0.00 0.00 0.00 65 1013.5
20260905194017 75 297 0.0 0.0 0.00 0.00 0.00 64 1013.5
20260905193517 75 297 0.0 0.0 0.00 0.00 0.00 63 1013.6
20260905193011 75 297 0.0 0.0 0.00 0.00 0.00 64 1013.6
20260905192509 75 297 0.0 0.0 0.00 0.00 0.00 65 1013.5
20260905192009 75 297 0.0 0.0 0.00 0.00 0.00 64 1013.5
20260905191510 75 297 0.0 0.0 0.00 0.00 0.00 64 1013.5
20260905191009 75 297 0.0 0.0 0.00 0.00 0.00 64 1013.6
20260905190509 74 297 0.0 0.0 0.00 0.00 0.00 64 1013.8
20260905190007 74 297 0.0 0.0 0.00 0.00 0.00 64 1013.8
20260905185507 74 297 0.0 0.0 0.00 0.00 0.00 63 1013.8
20260905185009 74 296 0.0 0.0 0.00 0.00 0.00 63 1013.7
20260905184507 74 296 0.0 0.0 0.00 0.00 0.00 62 1013.7
20260905184007 74 296 0.0 0.0 0.00 0.00 0.00 64 1013.7
20260905183504 74 296 0.0 0.0 0.00 0.00 0.00 65 1013.6
20260905183004 74 296 0.0 0.0 0.00 0.00 0.00 62 1013.5
20260905182503 74 296 0.0 0.0 0.00 0.00 0.00 65 1013.4
20260905182004 74 296 0.0 0.0 0.00 0.00 0.00 66 1013.5
20260905181504 74 296 0.0 0.0 0.00 0.00 0.00 64 1013.5
20260905181005 74 296 0.0 0.0 0.00 0.00 0.00 65 1013.5
20260905180503 73 296 0.0 5.0 0.00 0.00 0.00 66 1013.5
20260905180005 73 296 0.0 5.0 0.00 0.00 0.00 67 1013.6
20260905175503 73 295 0.0 0.0 0.00 0.00 0.00 70 1013.6
20260905175004 73 295 0.0 0.0 0.00 0.00 0.00 69 1013.6
20260905174503 73 295 0.0 0.0 0.00 0.00 0.00 69 1013.6
20260905174002 73 295 0.0 0.0 0.00 0.00 0.00 70 1013.5
20260905173503 73 295 0.0 0.0 0.00 0.00 0.00 70 1013.6
20260905173003 73 295 0.0 0.0 0.00 0.00 0.00 71 1013.6
20260905172503 72 295 0.0 0.0 0.00 0.00 0.00 72 1013.6
20260905172002 72 295 0.0 0.0 0.00 0.00 0.00 72 1013.6
20260905171503 72 295 0.0 0.0 0.00 0.00 0.00 71 1013.5
20260905171002 73 295 0.0 0.0 0.00 0.00 0.00 71 1013.4
20260905170502 73 295 0.0 0.0 0.00 0.00 0.00 69 1013.5
20260905170005 73 294 0.0 0.0 0.00 0.00 0.00 71 1013.4
20260905165503 73 294 0.0 3.0 0.00 0.00 0.00 71 1013.4
20260905165002 73 294 0.0 3.0 0.00 0.00 0.00 71 1013.4
20260905164503 73 294 0.0 0.0 0.00 0.00 0.00 68 1013.4
20260905164002 74 294 0.0 0.0 0.00 0.00 0.00 69 1013.5
20260905163502 73 294 0.0 0.0 0.00 0.00 0.00 69 1013.5
20260905163002 74 294 0.0 0.0 0.00 0.00 0.00 69 1013.5
20260905162502 73 294 0.0 0.0 0.00 0.00 0.00 71 1013.6
20260905162002 73 294 0.0 0.0 0.00 0.00 0.00 70 1013.6
20260905161503 73 293 0.0 0.0 0.00 0.00 0.00 68 1013.6
20260905161003 73 293 0.0 0.0 0.00 0.00 0.00 70 1013.6
20260905160502 72 293 0.0 0.0 0.00 0.00 0.00 70 1013.6
20260905160004 72 293 0.0 0.0 0.00 0.00 0.00 71 1013.6
20260905155502 72 293 0.0 0.0 0.00 0.00 0.00 71 1013.7
20260905155004 72 293 0.0 0.0 0.00 0.00 0.00 69 1013.7
20260905154501 73 293 0.0 0.0 0.00 0.00 0.00 72 1013.7
20260905154001 72 293 0.0 0.0 0.00 0.00 0.00 73 1013.8
20260905153501 72 293 0.0 0.0 0.00 0.00 0.00 73 1013.8
20260905153001 72 293 0.0 0.0 0.00 0.00 0.00 72 1013.8
20260905152501 71 285 0.0 0.0 0.00 0.00 0.00 74 1013.8
20260905152001 71 285 0.0 0.0 0.00 0.00 0.00 73 1013.7
20260905151500 71 285 0.0 0.0 0.00 0.00 0.00 74 1013.6
20260905151001 71 285 0.0 0.0 0.00 0.00 0.00 73 1013.6
20260905150501 71 285 0.0 0.0 0.00 0.00 0.00 73 1013.6
20260905150001 71 285 0.0 0.0 0.00 0.00 0.00 74 1013.7
20260905145500 71 285 0.0 0.0 0.00 0.00 0.00 73 1013.7
20260905145001 71 285 0.0 0.0 0.00 0.00 0.00 74 1013.6
20260905144501 71 285 0.0 0.0 0.00 0.00 0.00 76 1013.5
20260905144001 71 285 0.0 0.0 0.00 0.00 0.00 76 1013.5
20260905143501 70 285 0.0 0.0 0.00 0.00 0.00 77 1013.6
20260905143001 70 285 0.0 0.0 0.00 0.00 0.00 78 1013.7
20260905142501 70 285 0.0 0.0 0.00 0.00 0.00 78 1013.7
20260905142001 70 285 0.0 0.0 0.00 0.00 0.00 78 1013.7
20260905141500 70 285 0.0 0.0 0.00 0.00 0.00 78 1013.7
20260905141002 69 285 0.0 0.0 0.00 0.00 0.00 80 1013.8
20260905140501 69 285 0.0 0.0 0.00 0.00 0.00 81 1013.8
20260905140001 69 281 0.0 0.0 0.00 0.00 0.00 80 1013.8
20260905135501 69 19 0.0 0.0 0.00 0.00 0.00 81 1013.8
20260905135001 69 24 0.0 0.0 0.00 0.00 0.00 81 1013.7
20260905134501 69 18 0.0 0.0 0.00 0.00 0.00 82 1013.6
20260905134002 69 30 0.0 0.0 0.00 0.00 0.00 83 1013.6
20260905133502 68 284 0.0 0.0 0.00 0.00 0.00 82 1013.6
20260905133001 68 285 0.0 0.0 0.00 0.00 0.00 84 1013.6
20260905132502 68 15 0.0 0.0 0.00 0.00 0.00 84 1013.6
20260905132001 68 24 0.0 0.0 0.00 0.00 0.00 83 1013.7
20260905131502 68 35 0.0 0.0 0.00 0.00 0.00 84 1013.7
20260905131002 68 16 0.0 0.0 0.00 0.00 0.00 86 1013.7
20260905130501 67 23 0.0 0.0 0.00 0.00 0.00 87 1013.8
20260905130002 67 285 0.0 0.0 0.00 0.00 0.00 88 1013.9
20260905125502 67 285 0.0 0.0 0.00 0.00 0.00 89 1013.9
20260905125001 66 285 0.0 0.0 0.00 0.00 0.00 90 1013.9
20260905124455 66 285 0.0 0.0 0.00 0.00 0.00 90 1013.8
20260905123949 65 285 0.0 0.0 0.00 0.00 0.00 90 1013.8
20260905123443 65 285 0.0 0.0 0.00 0.00 0.00 90 1013.8
20260905122944 64 285 0.0 0.0 0.00 0.00 0.00 90 1013.8
20260905122443 64 285 0.0 0.0 0.00 0.00 0.00 90 1013.7
20260905121941 63 285 0.0 0.0 0.00 0.00 0.00 89 1013.7
20260905121439 63 285 0.0 0.0 0.00 0.00 0.00 89 1013.7
20260905120939 62 99 0.0 0.0 0.00 0.00 0.00 89 1013.8
20260905120439 62 283 0.0 0.0 0.00 0.00 0.00 89 1013.7
20260905115937 61 20 0.0 0.0 0.00 0.00 0.00 90 1013.6
20260905115437 61 41 0.0 0.0 0.00 0.00 0.00 90 1013.5
20260905114937 60 28 0.0 0.0 0.00 0.00 0.00 90 1013.5
20260905114436 60 26 0.0 0.0 0.00 0.00 0.00 90 1013.4
20260905113933 60 284 0.0 0.0 0.00 0.00 0.00 90 1013.5
20260905113433 60 284 0.0 0.0 0.00 0.00 0.00 90 1013.4
20260905112930 60 284 0.0 0.0 0.00 0.00 0.00 90 1013.2
20260905112430 60 284 0.0 0.0 0.00 0.00 0.00 90 1013.3
20260905111929 60 284 0.0 0.0 0.00 0.00 0.00 90 1013.3
20260905111430 60 284 0.0 0.0 0.00 0.00 0.00 90 1013.4
20260905110930 60 284 0.0 0.0 0.00 0.00 0.00 90 1013.3
20260905110432 60 284 0.0 0.0 0.00 0.00 0.00 90 1013.3
20260905105930 60 284 0.0 0.0 0.00 0.00 0.00 90 1013.3
20260905105428 60 284 0.0 0.0 0.00 0.00 0.00 90 1013.3
20260905104929 60 284 0.0 0.0 0.00 0.00 0.00 90 1013.3
20260905104429 60 284 0.0 0.0 0.00 0.00 0.00 90 1013.2
20260905103929 60 284 0.0 0.0 0.00 0.00 0.00 90 1013.1
20260905103429 60 284 0.0 0.0 0.00 0.00 0.00 90 1012.9
20260905102929 60 284 0.0 0.0 0.00 0.00 0.00 90 1012.7
20260905102429 60 284 0.0 0.0 0.00 0.00 0.00 90 1012.8
20260905101929 60 284 0.0 0.0 0.00 0.00 0.00 90 1012.8
20260905101429 60 284 0.0 0.0 0.00 0.00 0.00 90 1012.6
20260905100929 60 284 0.0 0.0 0.00 0.00 0.00 90 1012.7
20260905100429 60 284 0.0 0.0 0.00 0.00 0.00 90 1012.8
20260905095928 60 284 0.0 0.0 0.00 0.00 0.00 90 1012.8
20260905095429 60 284 0.0 0.0 0.00 0.00 0.00 90 1012.7
20260905094930 60 284 0.0 0.0 0.00 0.00 0.00 90 1012.7
20260905094429 60 284 0.0 0.0 0.00 0.00 0.00 90 1012.6
20260905093929 60 284 0.0 0.0 0.00 0.00 0.00 90 1012.6
20260905093428 60 284 0.0 0.0 0.00 0.00 0.00 91 1012.6
20260905092930 60 284 0.0 0.0 0.00 0.00 0.00 91 1012.6
20260905092428 60 284 0.0 0.0 0.00 0.00 0.00 91 1012.5
20260905091929 60 284 0.0 0.0 0.00 0.00 0.00 91 1012.4
20260905091429 60 284 0.0 0.0 0.00 0.00 0.00 90 1012.5
20260905090928 60 284 0.0 0.0 0.00 0.00 0.00 90 1012.4
20260905090429 60 284 0.0 0.0 0.00 0.00 0.00 90 1012.3
20260905085929 60 285 0.0 0.0 0.00 0.00 0.00 90 1012.3
20260905085429 60 285 0.0 0.0 0.00 0.00 0.00 90 1012.3
20260905084929 60 285 0.0 0.0 0.00 0.00 0.00 90 1012.3
20260905084430 61 285 0.0 0.0 0.00 0.00 0.00 91 1012.3
20260905083929 61 285 0.0 0.0 0.00 0.00 0.00 91 1012.3
20260905083429 61 285 0.0 0.0 0.00 0.00 0.00 91 1012.3
20260905082929 61 285 0.0 0.0 0.00 0.00 0.00 91 1012.3
20260905082429 61 285 0.0 0.0 0.00 0.00 0.00 90 1012.4
20260905081929 61 285 0.0 0.0 0.00 0.00 0.00 91 1012.4
20260905081430 61 285 0.0 0.0 0.00 0.00 0.00 90 1012.4
20260905080929 61 285 0.0 0.0 0.00 0.00 0.00 90 1012.4
20260905080429 61 285 0.0 0.0 0.00 0.00 0.00 90 1012.6
20260905075929 61 285 0.0 0.0 0.00 0.00 0.00 90 1012.6
20260905075430 61 285 0.0 0.0 0.00 0.00 0.00 91 1012.7
20260905074929 61 285 0.0 0.0 0.00 0.00 0.00 91 1012.6
20260905074430 62 285 0.0 0.0 0.00 0.00 0.00 91 1012.6
20260905073930 62 285 0.0 0.0 0.00 0.00 0.00 90 1012.7
20260905073429 62 285 0.0 0.0 0.00 0.00 0.00 90 1012.6
20260905072929 62 285 0.0 0.0 0.00 0.00 0.00 90 1012.7
20260905072429 62 285 0.0 0.0 0.00 0.00 0.00 90 1012.6
20260905071929 62 285 0.0 0.0 0.00 0.00 0.00 91 1012.7
20260905071430 62 285 0.0 0.0 0.00 0.00 0.00 91 1012.8
20260905070924 62 285 0.0 0.0 0.00 0.00 0.00 90 1012.6
20260905070418 62 284 0.0 0.0 0.00 0.00 0.00 90 1012.6
20260905065913 62 284 0.0 0.0 0.00 0.00 0.00 90 1012.7
20260905065406 63 284 0.0 0.0 0.00 0.00 0.00 91 1012.7
20260905064905 63 284 0.0 0.0 0.00 0.00 0.00 91 1012.8
20260905064404 63 0 0.0 0.0 0.00 0.00 0.00 90 1012.8
20260905063902 63 0 0.0 0.0 0.00 0.00 0.00 90 1012.8
20260905063403 63 0 0.0 0.0 0.00 0.00 0.00 90 1012.9
20260905062903 63 0 0.0 0.0 0.00 0.00 0.00 90 1012.9
20260905062401 64 0 0.0 0.0 0.00 0.00 0.00 90 1012.9
20260905061902 64 0 0.0 0.0 0.00 0.00 0.00 90 1012.9
20260905061401 64 0 0.0 0.0 0.00 0.00 0.00 90 1012.9
20260905060902 64 0 0.0 0.0 0.00 0.00 0.00 90 1012.9
20260905060401 64 0 0.0 0.0 0.00 0.00 0.00 90 1013.0
20260905055902 64 0 0.0 0.0 0.00 0.00 0.00 90 1013.0
20260905055401 64 0 0.0 0.0 0.00 0.00 0.00 90 1013.1
20260905054858 64 0 0.0 0.0 0.00 0.00 0.00 90 1013.1
20260905054359 64 0 0.0 0.0 0.00 0.00 0.00 90 1013.1
20260905053859 64 0 0.0 0.0 0.00 0.00 0.00 90 1013.1
20260905053357 64 0 0.0 0.0 0.00 0.00 0.00 90 1013.0
20260905052854 64 0 0.0 0.0 0.00 0.00 0.00 90 1013.1
20260905052352 64 0 0.0 0.0 0.00 0.00 0.00 90 1013.1
20260905051852 64 0 0.0 0.0 0.00 0.00 0.00 90 1013.0
20260905051346 64 0 0.0 0.0 0.00 0.00 0.00 90 1013.0
20260905050840 65 0 0.0 0.0 0.00 0.00 0.00 89 1013.0
20260905050334 65 0 0.0 0.0 0.00 0.00 0.00 89 1013.1
20260905045835 65 0 0.0 0.0 0.00 0.00 0.00 89 1013.1
20260905045333 65 0 0.0 0.0 0.00 0.00 0.00 89 1013.1
20260905044830 65 0 0.0 0.0 0.00 0.00 0.00 89 1013.1
20260905044330 65 0 0.0 0.0 0.00 0.00 0.00 89 1013.1
20260905043830 65 0 0.0 0.0 0.00 0.00 0.00 89 1013.0
20260905043330 65 0 0.0 0.0 0.00 0.00 0.00 89 1013.1
20260905042829 65 0 0.0 0.0 0.00 0.00 0.00 89 1013.1
20260905042329 66 0 0.0 0.0 0.00 0.00 0.00 89 1013.1
20260905041828 66 0 0.0 0.0 0.00 0.00 0.00 88 1013.1
20260905041328 66 0 0.0 0.0 0.00 0.00 0.00 88 1013.1